Regional Weather Roundup
Issued by NWS

Home | Current Version | Previous Version | Text Only | Print | Product List | Glossary On
Versions: 1 2 3 4 5 6 7 8 9 10 11 12 13 14 15 16 17 18 19 20 21 22 23 24 25 26 27 28 29 30 31 32 33 34 35 36 37 38 39 40 41 42 43 44 45 46 47 48 49 50
000
ASUS43 KDMX 171306
RWRIA

WEATHER ROUNDUP FOR IOWA
NATIONAL WEATHER SERVICE DES MOINES IA
700 AM CST SAT FEB 17 2018

NOTE: "FAIR" INDICATES FEW OR NO CLOUDS BELOW 12,000 FEET WITH NO
SIGNIFICANT WEATHER AND/OR OBSTRUCTIONS TO VISIBILITY.

* - THESE STATIONS ARE NOT NWS STATIONS...THUS NOT UNDER NWS
QUALITY CONTROL.  THEY ALSO DO NOT REPORT WEATHER SUCH
AS PRECIPITATION OR FOG.

IAZ001>003-012>014-020>022-031>034-043>046-171400-
   NORTHWEST IOWA

CITY           SKY/WX    TMP DP  RH WIND       PRES   REMARKS
CARROLL *      CLOUDY    28  19  69 S8        29.89S WCI  20
CHEROKEE *     LGT SNOW  26  24  91 SW14      29.88S WCI  15
DENISON *      CLOUDY    28  18  64 S10G17    29.89S WCI  19
LE MARS *      LGT SNOW  25  23  93 S7        29.88S VSB 3/4 WCI  17
ORANGE CITY *  LGT SNOW  25  25 100 SW8       29.87R VSB 3/4 WCI  16
SHELDON *      SNOW      23  23 100 SW6       29.86S VSB 1/2 WCI  16
SIOUX CITY     LGT SNOW  24  23  96 CALM      29.89F FOG
SPENCER        LGT SNOW  24  17  74 SW5       29.88S WCI  18
STORM LAKE *   MIX PCPN  27  18  69 SW12      29.86F WCI  16
$$

IAZ055>058-069>071-079>083-090>094-171400-
   SOUTHWEST IOWA

CITY           SKY/WX    TMP DP  RH WIND       PRES   REMARKS
ATLANTIC *     CLOUDY    28  16  59 S8        29.91S WCI  20
AUDUBON *      CLOUDY    28  16  59 CALM      29.90S
CLARINDA *     CLOUDY    30  18  59 S6        29.95R WCI  24
COUNCIL BLFS * CLOUDY    30  16  55 S9        29.90R WCI  22
CRESTON *      CLOUDY    28  12  50 S7        29.92R WCI  21
HARLAN  *      CLOUDY    28  18  64 S9        29.92F WCI  20
LAMONI         CLOUDY    28  10  46 S12       29.90F WCI  18
RED OAK *      CLOUDY    30  16  55 S6        29.92S WCI  24
SHENANDOAH *   CLOUDY    32  18  55 S6        29.93R WCI  26
$$

IAZ047>049-059>061-072>074-084-171400-
   CENTRAL IOWA

CITY           SKY/WX    TMP DP  RH WIND       PRES   REMARKS
AMES           CLOUDY    23  14  68 SE5       29.93F WCI  17
ANKENY *       CLOUDY    27  12  54 SE5       29.95S WCI  21
BOONE *        CLOUDY    25  16  68 SE3       29.91F
CHARITON *     CLOUDY    27  14  59 S13       29.91F WCI  16
DES MOINES     CLOUDY    27  12  53 SE7       29.93F WCI  19
GRINNELL*      MOCLDY    22  14  70 SE6       29.96F WCI  15
KNOXVILLE *    CLOUDY    27  10  50 SE9       29.92F WCI  17
MARSHALLTOWN   CLOUDY    24  12  60 S9        29.94F WCI  14
NEWTON *       CLOUDY    23  14  68 SE9       29.93F WCI  13
PELLA *        CLOUDY    25  14  61 SE8       29.96F WCI  17
PERRY *        CLOUDY    25  18  74 SE5       29.92S WCI  20
$$

IAZ004>006-015-016-023>025-035-036-171400-
   NORTH CENTRAL IOWA

CITY           SKY/WX    TMP DP  RH WIND       PRES   REMARKS
ALGONA *       CLOUDY    25 N/A N/A S12       29.89S WCI  14
CLARION *      CLOUDY    21  21 100 S9        29.92F WCI  11
ESTHERVILLE    CLOUDY    22  16  78 SW5       29.88R WCI  16
FORT DODGE *   CLOUDY    25  15  66 S6        29.90F WCI  18
MASON CITY     CLOUDY    22  13  68 S10       29.93F WCI  11
FOREST CITY *  CLOUDY    25  18  74 SW7       29.92R WCI  17
WEBSTER CITY * CLOUDY    23  16  74 S12       29.89F WCI  12
IOWA FALLS *   CLOUDY    25  15  68 S12       29.94S WCI  14
$$

IAZ007>011-017>019-026>030-037>042-050>054-066-171400-
   NORTHEAST IOWA

CITY           SKY/WX    TMP DP  RH WIND       PRES   REMARKS
CEDAR RAPIDS   CLOUDY    21  14  74 S8        29.99F WCI  11
CHARLES CITY * CLOUDY    21  12  68 S13       29.95S WCI   9
CLINTON *      CLOUDY    17  11  77 SE8       30.07F WCI   7
DECORAH *      CLOUDY    21  10  63 S10G18    29.94F WCI  10
DUBUQUE        CLOUDY    17   8  67 S16       30.00F WCI   2
MONTICELLO *   CLOUDY    19  12  73 S7        30.02F WCI  10
OELWEIN *      CLOUDY    19  16  86 S12       29.99F WCI   7
WATERLOO       CLOUDY    21  14  74 SE10      29.97F WCI  10
$$

IAZ064-065-067-068-078-171400-
   EAST CENTRAL IOWA

CITY           SKY/WX    TMP DP  RH WIND       PRES   REMARKS
DAVENPORT      CLOUDY    23  13  65 S8        30.07F WCI  14
IOWA CITY      CLOUDY    21  14  74 SE5       30.04F WCI  15
MT. PLEASANT * CLOUDY    27  19  74 S12       30.02F WCI  16
MUSCATINE *    CLOUDY    21  16  79 SE3       30.06F
QUAD CITIES    CLOUDY    23  14  68 S6        30.06F WCI  16
$$

IAZ062-063-075>077-085>089-095>099-171400-
   SOUTHEAST IOWA

CITY           SKY/WX    TMP DP  RH WIND       PRES   REMARKS
BURLINGTON     CLOUDY    26  16  65 S7        30.05F WCI  18
FAIRFIELD *    CLOUDY    25  16  68 S10       30.00F WCI  15
FORT MADISON * CLOUDY    27  19  74 S8        30.05F WCI  18
KEOKUK *       CLOUDY    27  19  74 SE7       30.03F WCI  19
OSKALOOSA *    CLOUDY    24  17  74 SE10      29.98F WCI  13
OTTUMWA        CLOUDY    26  14  60 SE10      29.97F WCI  16
WASHINGTON *   CLOUDY    23  21  93 SE8       30.02F WCI  14
$$

ABBREVIATIONS USED IN REMARKS
   TC - TEMPERATURES IN CELSIUS
  WCI - WIND CHILL INDEX
   HX - HEAT INDEX
  VSB - VISIBILITY
$$





USA.gov is the U.S. government's official web portal to all federal, state and local government web resources and services.